www.pogodaiklimat.ru

Погода и климат >> Архив погоды >> Мексика >> Hermosillo


ПОГОДА в Hermosillo

  • Прогноз погоды в Hermosillo
  • Монитор погоды в Hermosillo
  • Климат города

АРХИВ ПОГОДЫ в Hermosillo

Время (UTC), дата Ветер
(напр.,м/с)
 
Видим.   Явления Облачность Т
(С)
Тd
(С)
f
(%)
Тe
(С)
Тes
(С)
Комфортность P
(гПа)
Po
(гПа)
Тmin
(С)
Tmax
(С)
R
(мм)
S
(см)
03 21.03 ЮЗ 2 8000 м ясно +30.2 +9.0 27 +30 +30 жарко 1012.8 989.1
06 21.03 ЮЗ 1 8000 м ясно +25.2 +8.4 34 +26 +26 жарко 1014.6 990.8 +17.0 +37.5
12 21.03 В 2 8000 м ясно +18.2 +7.8 51 +19 +19 1014.5 989.8 +18.2 +37.5
15 21.03 В 1 12 км ясно +16.4 +8.6 60 +17 +21 1016.7 991.7
18 21.03 В 1 12 км ясно +30.0 +10.6 30 +30 +48 жарко 1016.3 991.7 +15.5 +30.0
21 21.03 З 1 12 км ясно +35.2 +9.3 21 +34 +51 опасность
солнечного
удара
1012.9 988.8
00 22.03 ЮЗ 1 12 км ясно +35.0 +10.9 23 +34 +37 очень
жарко
1011.5 987.6 +15.5 +36.5
03 22.03 З 3 8000 м ясно +27.6 +8.3 30 +27 +27 жарко 1012.8 988.9
06 22.03 ЮЗ 1 8000 м ясно +22.8 +9.6 43 +24 +24 комфорт 1013.5 989.5 +15.5 +36.5
12 22.03 СВ 2 8000 м ясно +14.0 +6.0 59 +14 +14 1013.4 988.4 +14.0 +36.5
15 22.03 СВ 2 8000 м ясно +14.0 +6.0 59 +14 +17 1013.4 988.4 +14.0 +36.5
18 22.03 В 1 12 км ясно +28.0 +8.9 30 +28 +46 жарко 1014.9 990.3 +13.5 +28.0
21 22.03 Ю 1 12 км ясно +32.6 +9.9 25 +32 +49 жарко 1012.4 988.1
00 23.03 ЮЗ 2 12 км ясно +33.2 +8.9 22 +32 +34 жарко 1010.7 986.7 +13.5 +33.5
03 23.03 З 3 8000 м ясно +26.6 +8.7 32 +27 +27 жарко 1011.4 987.3
06 23.03 З 1 8000 м ясно +22.8 +11.6 49 +25 +25 комфорт 1012.2 988.1 +13.5 +33.5
15 23.03 В 1 12 км 3/3 900 м
[Sc diur, vesp]
+18.0 +12.4 70 +19 +22 1017.0 992.2
18 23.03 З 1 12 км 1/1 900 м
[Sc diur, vesp]
+26.0 +4.0 24 +25 +41 комфорт 1017.9 993.3 +17.5 +26.0
21 23.03 ЮЗ 1 12 км ясно +26.2 +5.5 27 +26 +43 жарко 1015.4 991.1
00 24.03 ЮЗ 1 12 км ясно +27.4 +3.5 22 +26 +29 жарко 1014.3 990.1 +17.5 +38.0
03 24.03 З 3 8000 м ясно +22.4 +4.0 30 +22 +22 комфорт 1015.8 991.6
06 24.03 З 1 8000 м ясно +19.4 +1.3 30 1018.2 +17.5 +38.0
15 24.03 СВ 1 12 км ясно +15.0 +0.1 36 +16 +19 1021.2 996.2
18 24.03 СВ 1 12 км ясно +24.8 +5.3 28 +24 +43 комфорт 1020.9 996.2 +12.5 +24.8
21 24.03 ЮВ 1 12 км ясно +31.2 +1.4 15 +28 +46 жарко 1017.5 993.2
00 25.03 ЮЗ 1 12 км ясно +32.0 +4.5 18 +30 +33 жарко 1015.0 990.9 +12.5 +33.0
03 25.03 З 4 8000 м ясно +24.8 +4.7 27 +24 +24 комфорт 1015.7 991.6
06 25.03 СЗ 1 8000 м ясно +20.8 +4.7 35 +23 +23 комфорт 1015.8 991.6 +12.5 +33.0
15 25.03 ЮВ 1 12 км ясно +14.6 +5.4 54 +15 +19 1015.6 990.5
18 25.03 СЗ 1 12 км ясно +27.2 +2.5 20 +26 +44 жарко 1014.7 990.2 +12.0 +27.2
18 26.03 ЮЗ 1 12 км ясно +27.2 +4.4 23 +26 +44 жарко 989.7 +11.0 +27.2
21 26.03 З 3 12 км ясно +30.6 +0.8 15 +28 +41 жарко 1011.4 987.7
15 27.03 СВ 1 12 км ясно +13.0 +5.0 58 +13 +17 1014.6 989.4
18 27.03 СЗ 1 12 км ясно +26.4 +8.8 33 +27 +45 жарко 1013.4 988.9 +12.6 +26.4
21 27.03 ЮЗ 2 12 км ясно +30.6 +8.6 25 +30 +45 жарко 1009.9 985.8
00 28.03 ЮЗ 2 12 км ясно +29.8 +8.8 27 +29 +32 жарко 1008.4 984.4 +12.0 +32.0

 

Местоположение метеостанции Hermosillo (Мексика): широта 29.09 долгота -111.05 высота над уровнем моря 191 м.

В архиве по умолчанию представлена погода в Hermosillo за последнюю неделю. Архивные данные за месяц целиком и за предыдущие месяцы, начиная с января 2011 года, Вы можете получить, выбрав интересующий диапазон дат из раскрывающегося списка и нажав кнопку "Ввод!".

Внимание! Время в таблицах - всемирное. Для получения местного времени необходимо прибавить поправку, которая в Hermosillo равна -7 ч.

Смотрите также архив погоды в соседних городах и на ближайших метеорологических станциях:

Погода в Hermosillo la Magna (Мексика) (10 км)
Погода в Guaymas Upper Air Site (Мексика) (131 км)
Погода в Empalme (Мексика) (131 км)
Погода в Pilares de Nacoz (Мексика) (194 км)
Погода в Altar Son (Мексика) (196 км)
Погода в Ciudad Obregon (Мексика) (224 км)
Погода в Santa Rosalia (Мексика) (233 км)
Погода в Temosachic (Мексика) (316 км)
Погода в Nueva Casas Grandes (Мексика) (336 км)
Погода в Loreto (Мексика) (342 км)

Пояснения к столбцам:

Ветер - указаны скорость ветра в м/с - средняя за 10 мин, порывы в срок и между сроками (в фигурных скобках) и направление, откуда дует ветер: С - северный, СВ - северо-восточный, В - восточный, ЮВ - юго-восточный, Ю - южный, ЮЗ - юго-западный, З - западный, СЗ - северо-западный.
Видимость - горизонтальная дальность видимости в метрах или километрах. При видимости от 1 до 10 км при отсутствии осадков обычно наблюдается дымка, при ухудшении видимости до 1 км и менее - туман. В сухую погоду видимость может ухудшаться дымом, пылью или мглою.
Явления - указаны атмосферные явления, наблюдавшиеся в срок или в последний час перед сроком; фигурными скобками обозначены явления, наблюдавшиеся между сроками (за 1-3 часа до срока); квадратными скобками обозначены град или гололедные отложения с указанием их диаметра в мм.
Облачность - указаны через наклонную черту общая и нижняя облачность в баллах и высота нижней границы облаков в метрах; квадратными скобками обозначены формы облаков: Ci - перистые, Cs - перисто-слоистые, Cc - перисто-кучевые, Ac - высококучевые, As - высокослоистые, Sc - слоисто-кучевые, Ns - слоисто-дождевые, Cu - кучевые, Cb - кучево-дождевые. Подробнее классификацию облаков см. в Атласе облаков (PDF).
T - Температура воздуха - температура, измеренная на высоте 2 м над землей.
Td - Температура точки росы - температура, при понижении до которой содержащийся в воздухе водяной пар достигнет насыщения.
f - Относительная влажность воздуха - влажноcть воздуха, измеренная на высоте 2 м над землей.
Te - Эффективная температура - температура, которую ощущает одетый по сезону человек в тени. Характеристика душности погоды. При расчете учитывается влияние влажности воздуха и скорости ветра на теплоощущения человека.
Tes - Эффективная температура на солнце - температура, которую ощущает человек, с поправкой на солнечный нагрев. Характеристика знойности погоды. Зависит от высоты солнца над горизонтом, облачности и скорости ветра. Ночью, в пасмурную погоду, а также при ветре 12 м/с и более поправка равна нулю.
P - Атмосферное давление - приведенное к уровню моря атмосферное давление.
Po - Атмосферное давление - измеренное на уровне метеостанции атмосферное давление.
Tmin - Минимальная температура - минимум температуры воздуха на высоте 2 м над землей.
Tmax - Максимальная температура - максимум температуры воздуха на высоте 2 м над землей.
R - Количество осадков - Количество выпавших осадков, мм. При наведении курсора мыши на число - период времени, за который выпало указанное количество осадков.
S - Снежный покров - Высота снежного покрова, см. При наведении курсора мыши на число - состояние снежного покрова и степень покрытия местности в баллах.